| time (UTC) | temp C | wind direction | speed KPH | gust KPH | rain 1hr cm | rain 24hr cm | rain mn cm | humidity % | barometer mb |
| 20260503194532 | 31 | 120 | 0.0 | 3.2 | 0.00 | 0.00 | 0.00 | 21 | 1007.5 |
| 20260503193027 | 31 | 166 | 1.6 | 4.8 | 0.00 | 0.00 | 0.00 | 30 | 1007.7 |
| 20260503191524 | 31 | 290 | 0.0 | 4.8 | 0.00 | 0.00 | 0.00 | 21 | 1007.9 |
| 20260503190039 | 31 | 79 | 1.6 | 4.8 | 0.00 | 0.00 | 0.00 | 22 | 1008.0 |
| 20260503184518 | 30 | 127 | 0.0 | 3.2 | 0.00 | 0.00 | 0.00 | 28 | 1008.1 |
| 20260503183017 | 30 | 68 | 1.6 | 6.4 | 0.00 | 0.00 | 0.00 | 27 | 1008.3 |
| 20260503181513 | 30 | 148 | 1.6 | 6.4 | 0.00 | 0.00 | 0.00 | 25 | 1008.4 |
| 20260503180013 | 29 | 112 | 0.0 | 4.8 | 0.00 | 0.00 | 0.00 | 28 | 1008.5 |
| 20260503174506 | 28 | 219 | 0.0 | 6.4 | 0.00 | 0.00 | 0.00 | 33 | 1008.7 |
| 20260503173003 | 27 | 177 | 0.0 | 4.8 | 0.00 | 0.00 | 0.00 | 41 | 1008.7 |
| 20260503171559 | 26 | 66 | 0.0 | 1.6 | 0.00 | 0.00 | 0.00 | 40 | 1008.9 |
| 20260503171501 | 26 | 66 | 0.0 | 1.6 | 0.00 | 0.00 | 0.00 | 43 | 1008.9 |
| 20260503130119 | 11 | 88 | 0.0 | 1.6 | 0.00 | 0.00 | 0.00 | 79 | 1009.4 |
| 20260503100107 | 12 | 28 | 0.0 | 12.9 | 0.00 | 0.00 | 0.00 | 81 | 1010.0 |
| 20260503081546 | 13 | 77 | 0.0 | 3.2 | 0.00 | 0.00 | 0.00 | 83 | 1010.2 |
| 20260503071546 | 14 | 75 | 0.0 | 6.4 | 0.00 | 0.00 | 0.00 | 86 | 1010.4 |
| 20260503054538 | 15 | 327 | 0.0 | 0.0 | 0.00 | 0.05 | 0.00 | 84 | 1010.5 |
| 20260503053033 | 15 | 58 | 1.6 | 6.4 | 0.00 | 0.05 | 0.00 | 83 | 1010.5 |
| 20260503051530 | 15 | 156 | 0.0 | 3.2 | 0.00 | 0.05 | 0.00 | 83 | 1010.3 |
| 20260503050031 | 16 | 326 | 1.6 | 11.3 | 0.00 | 0.05 | 0.00 | 80 | 1010.0 |
| 20260503044531 | 16 | 351 | 0.0 | 6.4 | 0.00 | 0.05 | 0.00 | 80 | 1010.3 |
| 20260503043031 | 16 | 30 | 0.0 | 20.9 | 0.00 | 0.05 | 0.00 | 79 | 1010.3 |
| 20260503041529 | 16 | 139 | 4.8 | 14.5 | 0.00 | 0.05 | 0.00 | 80 | 1010.5 |
| 20260503040029 | 16 | 117 | 3.2 | 14.5 | 0.00 | 0.05 | 0.00 | 80 | 1010.6 |
| 20260503034528 | 16 | 51 | 0.0 | 3.2 | 0.00 | 0.05 | 0.00 | 82 | 1010.8 |
| 20260503033039 | 16 | 98 | 0.0 | 1.6 | 0.00 | 0.05 | 0.00 | 81 | 1010.7 |
| 20260503031527 | 16 | 100 | 0.0 | 4.8 | 0.00 | 0.05 | 0.00 | 81 | 1010.5 |
| 20260503030026 | 16 | 37 | 0.0 | 3.2 | 0.00 | 0.05 | 0.00 | 81 | 1010.6 |
| 20260503024525 | 16 | 358 | 0.0 | 0.0 | 0.00 | 0.05 | 0.00 | 80 | 1010.7 |
| 20260503023025 | 17 | 29 | 0.0 | 1.6 | 0.00 | 0.05 | 0.00 | 78 | 1010.5 |
| 20260503021528 | 17 | 290 | 0.0 | 0.0 | 0.00 | 0.05 | 0.00 | 77 | 1010.4 |
| 20260503020025 | 17 | 290 | 0.0 | 0.0 | 0.00 | 0.05 | 0.00 | 75 | 1009.8 |
| 20260503014540 | 18 | 290 | 0.0 | 0.0 | 0.00 | 0.05 | 0.00 | 73 | 1009.6 |
| 20260503013025 | 18 | 290 | 0.0 | 1.6 | 0.00 | 0.05 | 0.00 | 73 | 1009.4 |
| 20260503011523 | 18 | 275 | 0.0 | 1.6 | 0.00 | 0.05 | 0.00 | 70 | 1009.3 |
| 20260503010023 | 18 | 278 | 0.0 | 1.6 | 0.00 | 0.05 | 0.00 | 70 | 1009.2 |
| 20260503004527 | 19 | 11 | 0.0 | 1.6 | 0.00 | 0.05 | 0.00 | 68 | 1009.3 |
| 20260503003022 | 19 | 11 | 0.0 | 3.2 | 0.00 | 0.05 | 0.00 | 66 | 1009.2 |
| 20260503001525 | 20 | 44 | 0.0 | 1.6 | 0.00 | 0.05 | 0.00 | 66 | 1009.1 |
| 20260503000019 | 20 | 68 | 0.0 | 3.2 | 0.00 | 0.05 | 0.00 | 66 | 1009.1 |
| 20260502234516 | 19 | 280 | 0.0 | 3.2 | 0.00 | 0.05 | 0.00 | 69 | 1009.4 |
| 20260502233016 | 19 | 291 | 0.0 | 1.6 | 0.00 | 0.05 | 0.00 | 68 | 1009.3 |
| 20260502231516 | 18 | 347 | 0.0 | 6.4 | 0.00 | 0.05 | 0.00 | 69 | 1009.6 |
| 20260502230016 | 18 | 339 | 0.0 | 1.6 | 0.00 | 0.05 | 0.00 | 69 | 1009.6 |
| 20260502224510 | 18 | 245 | 0.0 | 6.4 | 0.00 | 0.05 | 0.00 | 68 | 1009.7 |
| 20260502223010 | 18 | 274 | 0.0 | 4.8 | 0.00 | 0.05 | 0.00 | 69 | 1009.9 |
| 20260502221508 | 18 | 269 | 0.0 | 3.2 | 0.00 | 0.05 | 0.00 | 68 | 1010.2 |
| 20260502220006 | 18 | 153 | 0.0 | 3.2 | 0.00 | 0.05 | 0.00 | 67 | 1010.3 |
| 20260502214506 | 18 | 147 | 0.0 | 4.8 | 0.00 | 0.05 | 0.00 | 69 | 1010.5 |
| 20260502213001 | 18 | 178 | 0.0 | 6.4 | 0.00 | 0.05 | 0.00 | 68 | 1010.7 |
| 20260502211637 | 17 | 311 | 1.6 | 6.4 | 0.00 | 0.05 | 0.00 | 70 | 1010.8 |
| 20260502210108 | 16 | 20 | 0.0 | 6.4 | 0.00 | 0.05 | 0.00 | 75 | 1011.1 |
| 20260502204552 | 16 | 323 | 0.0 | 6.4 | 0.00 | 0.05 | 0.00 | 77 | 1011.3 |
| 20260502203058 | 16 | 283 | 1.6 | 8.0 | 0.00 | 0.05 | 0.00 | 74 | 1011.4 |
| 20260502201556 | 15 | 207 | 0.0 | 6.4 | 0.00 | 0.05 | 0.00 | 78 | 1011.6 |
| 20260502200051 | 16 | 311 | 1.6 | 6.4 | 0.00 | 0.05 | 0.00 | 74 | 1011.8 |